Location: Newark
(54.6833°N, 25.2833°E)
Time: 11:10:23
(UTC+00:00)

Tiros 1 despin weight - Visible Passes

Search period start: 21 January 2021 00:00
Search period end: 31 January 2021 00:00
Orbit: 594 x 641 km, 48.2° (Epoch: 20 January)

Date Brightness Start Highest point End Pass type
(mag) Time Alt. Az. Time Alt. Az. Time Alt. Az.
21 Jan ? 16:11:56 10° WSW 16:16:02 36° S 16:19:06 16° ESE visible
21 Jan ? 17:53:06 10° WSW 17:56:09 27° SW 17:56:09 27° SW visible
22 Jan ? 16:28:07 10° WSW 16:32:13 35° S 16:34:55 18° SE visible
22 Jan ? 18:09:34 10° WSW 18:11:58 20° SW 18:11:58 20° SW visible
23 Jan ? 16:44:23 10° WSW 16:48:22 32° SSW 16:50:47 19° SE visible
23 Jan ? 18:26:19 10° WSW 18:27:50 15° SW 18:27:50 15° SW visible
24 Jan ? 15:19:29 10° WSW 15:23:36 36° S 15:27:41 10° ESE visible
24 Jan ? 17:00:46 10° WSW 17:04:29 26° SSW 17:06:43 18° SSE visible
25 Jan ? 15:35:42 10° WSW 15:39:47 34° S 15:43:49 10° ESE visible
25 Jan ? 17:17:18 10° WSW 17:20:33 20° SSW 17:22:46 14° S visible
26 Jan ? 15:52:00 10° WSW 15:55:55 30° SSW 15:59:48 10° SE visible
26 Jan ? 17:34:16 10° WSW 17:36:30 14° SW 17:38:42 10° S visible
27 Jan ? 16:08:26 10° WSW 16:12:01 24° SSW 16:15:33 10° SSE visible
28 Jan ? 16:25:05 10° WSW 16:28:01 17° SSW 16:30:56 10° S visible
29 Jan ? 16:42:31 10° WSW 16:43:56 11° SW 16:45:22 10° SSW visible
